Hauptseite
METAR-TAF:

METAR-TAF

Flughäfen :

Nancy, Frankreich

Breite: 48-41N, Länge: 006-13E, Höhe: 225 m

Beobachtung

Neuester Wetterbericht von vor 15 Minuten, um 20:00 UTC
Wind 5 kt aus Nord/Nordost, variierte zwischen Nord und Ost/Nordost
Temperatur 0°C
Luftfeuchtigkeit 80%
Luftdruck 1017 hPa
Sichtweite: 7000 m
Aufgelockert bewölkt in der Höhe von 1900 ft
Geschlossene Wolkendecke in der Höhe von 6400 ft

METAR: LFSN 202000Z AUTO 03005KT 360V060 7000 SCT019 OVC064 M00/M03 Q1017

Zeit: 21:15 (20:15 UTC)


TAF: fehlend

Wetterbeobachtungen und Prognosen von mehr als 4000 Flughäfen (METAR und TAF Bericht).

Die verfügbaren Stationen werden durch gelbe und rote Markierungen auf der Karte dargestellt.

Führen Sie die Maus auf sie, um den Namen der Station zu sehen.

Darauf klicken, um die Beobachtung von Wetterbeobachtungen und Prognosen zu sehen.

Um die Karte zu ändern : klicken Sie auf den grünen Tasten mit einem schwarzen Kreuz Zum Vergrößern, auf den grünen Button mit einem Gedankenstrich zu verkleinern, oder auf die grünen Pfeile für benachbarte Karten.


METAR-TAF: